This is the latest recevied weather packets stored in our database for station/object KC1TEM-13. If no packets are shown the sender has not sent any weather packets the latest 10 day(s).
| Time | Temp. | Humidity | Pressure | Rain* | Wind** | Luminosity | Snow |
|---|---|---|---|---|---|---|---|
| 1788541347 | 28.33° C | 56% | 1009.4 hPa | 0 mm | - | 228 W/m² | - |
| 1788541047 | 27.78° C | 55% | 1009.4 hPa | 0 mm | - | 865 W/m² | - |
| 1788540741 | 27.78° C | 56% | 1009.5 hPa | 0 mm | - | 830 W/m² | - |
| 1788540441 | 27.78° C | 56% | 1009.6 hPa | 0 mm | - | 826 W/m² | - |
| 1788540135 | 27.22° C | 54% | 1009.6 hPa | 0 mm | - | 806 W/m² | - |
| 1788539832 | 27.22° C | 62% | 1009.8 hPa | 0 mm | - | 804 W/m² | - |
| 1788539527 | 27.78° C | 61% | 1009.6 hPa | 0 mm | - | 373 W/m² | - |
| 1788539226 | 27.22° C | 59% | 1009.6 hPa | 0 mm | - | 843 W/m² | - |
| 1788538921 | 26.67° C | 62% | 1009.6 hPa | 0 mm | - | 797 W/m² | - |
| 1788538617 | 26.67° C | 66% | 1009.5 hPa | 0 mm | - | 779 W/m² | - |
| 1788538312 | 27.22° C | 60% | 1009.7 hPa | 0 mm | - | 783 W/m² | - |
| 1788538007 | 26.67° C | 61% | 1009.8 hPa | 0 mm | - | 775 W/m² | - |
| 1788537703 | 26.67° C | 68% | 1009.8 hPa | 0 mm | - | 779 W/m² | - |
| 1788537397 | 26.67° C | 60% | 1009.9 hPa | 0 mm | - | 773 W/m² | - |
| 1788537092 | 27.22° C | 61% | 1010 hPa | 0 mm | - | 773 W/m² | - |
| 1788536791 | 27.22° C | 64% | 1010 hPa | 0 mm | - | 772 W/m² | - |
| 1788536491 | 26.67° C | 66% | 1009.9 hPa | 0 mm | - | 765 W/m² | - |
| 1788536191 | 26.67° C | 62% | 1010 hPa | 0 mm | - | 757 W/m² | - |
| 1788535887 | 26.67° C | 62% | 1010.4 hPa | 0 mm | - | 750 W/m² | - |
| 1788535583 | 26.67° C | 65% | 1010.2 hPa | 0 mm | - | 743 W/m² | - |
| 1788535279 | 26.67° C | 64% | 1010.1 hPa | 0 mm | - | 738 W/m² | - |
| 1788534979 | 27.22° C | 65% | 1010.1 hPa | 0 mm | - | 734 W/m² | - |
| 1788534677 | 26.67° C | 64% | 1010 hPa | 0 mm | - | 730 W/m² | - |
| 1788534373 | 26.11° C | 68% | 1010.1 hPa | 0 mm | - | 722 W/m² | - |
| 1788534069 | 26.11° C | 67% | 1010.1 hPa | 0 mm | - | 716 W/m² | - |
* Rain latest hour (hover to see other rain measurements)
** Current wind speed in m/s (hover to see current wind gust speed)